Location: ?????????
(42.0535°N, 44.2237°E)
Time: 08:42:30
(UTC+00:00)

Daily predictions for brighter satellites

Satellite Brightness Start Highest point End
(mag) Time Altitude Azimuth Time Altitude Azimuth Time Altitude Azimuth
Cosmos 1743 3.0 16:43:54 10° NNE 16:46:37 30° ENE 16:49:19 10° SE
Delta 2 Rocket 4.0 16:44:12 10° SW 16:46:44 22° S 16:49:11 10° ESE
Cosmos 1452 Rocket 3.6 16:42:02 10° SSW 16:47:15 85° WNW 16:52:30 10° NNE
USA 305 2.7 16:43:28 10° NW 16:47:33 75° SW 16:51:16 10° SE
Okean 1 Rocket 3.2 16:43:16 10° S 16:47:40 80° W 16:52:07 10° N
CZ-4B R/B 3.9 16:43:05 10° SE 16:48:17 39° ENE 16:53:27 10° N
Cosmos 1741 Rocket 4.1 16:47:27 10° NNW 16:52:47 90° WSW 16:58:04 10° SSE
Cosmos 1302 Rocket 4.0 16:49:45 10° S 16:54:52 68° ESE 17:00:01 10° NNE
NOSS 3-3 (C) 3.7 16:53:14 10° SSW 16:58:09 57° ESE 17:03:52 10° NE
USA 215 4.0 16:56:43 10° SSE 17:02:56 47° SW 17:09:13 10° WNW
Cosmos 1725 Rocket 4.0 16:57:06 10° S 17:03:19 70° E 17:09:31 10° NNE
CSL-04 Debris 4.3 16:58:18 10° S 17:03:42 80° WSW 17:09:11 10° NNW
Okean-O 4.0 17:00:18 10° ESE 17:03:45 23° ENE 17:07:12 10° NNE
Helios 1A Rocket 2.3 17:02:51 10° NNE 17:05:57 55° ESE 17:09:01 10° S
GEOS 3 Rocket 3.8 17:00:59 10° SE 17:06:14 69° NE 17:11:36 10° NNW
Gbstr 26 Del rocket 3.5 17:02:12 10° WNW 17:07:26 64° SW 17:11:25 12° SE
SPOT 5 3.5 17:04:31 10° S 17:08:41 48° W 17:12:58 10° NNW
ADEOS 3.9 17:04:04 10° SE 17:09:05 51° ENE 17:14:07 10° N
Feng Yun 1-1 Rocket 4.2 17:06:30 10° SSE 17:11:52 83° ENE 17:17:20 10° NNW
Cosmos 2016 Rocket 4.0 17:11:01 10° S 17:17:15 82° E 17:23:28 10° N
Tsikada Rocket 4.2 17:11:53 10° N 17:17:55 54° ENE 17:23:46 11° SSE
Cosmos 2322 Rocket 4.0 17:14:09 10° N 17:17:59 18° NE 17:21:49 10° E
Cosmos 2082 Rocket 2.4 17:13:45 10° SSW 17:19:27 77° WNW 17:25:12 10° NNE
Cosmos 2237 4.4 17:16:56 10° NNW 17:22:39 64° ENE 17:27:26 15° SE
Meteor 1-31 Rocket 3.7 17:23:06 10° S 17:26:23 40° W 17:29:41 10° NNW
CZ-4C R/B 4.5 17:23:07 10° W 17:26:36 23° NW 17:30:47 10° NNE
DELTA 2 R/B (1) 3.6 17:21:37 10° W 17:27:10 70° S 17:32:18 12° E
Cosmos 2369 3.7 17:21:35 10° NNW 17:27:19 79° ENE 17:32:11 15° SSE
IRS-1A Rocket 4.4 17:25:02 11° SSE 17:30:34 71° ENE 17:36:27 10° N
BREEZE-M DEB (TANK) 3.6 17:27:54 10° W 17:32:13 34° NNW 17:34:23 10° NE
PAYLOAD B 4.5 17:28:59 10° S 17:34:28 71° WSW 17:40:01 10° NNW
Milstar 3 4.2 17:32:29 10° WSW 17:37:33 22° S 17:41:41 15° SSE
ATLAS 3B R/B 4.3 17:33:40 10° NW 17:40:10 31° WSW 17:46:17 10° S
YAOGAN 11 4.3 17:35:51 10° NNE 17:40:14 54° E 17:44:10 12° S
Ariane Rocket 4.3 17:38:53 16° ESE 17:41:32 25° ENE 17:45:35 10° NNE
CZ-4B R/B 4.1 17:40:36 17° E 17:41:33 19° ENE 17:44:05 10° NNE
Cosmos 2098 Rocket 4.5 17:40:12 20° ESE 17:41:40 23° E 17:45:05 10° NE
Cosmos 2151 3.6 17:41:28 10° N 17:45:16 36° ENE 17:46:57 25° SE
Spot 2 Rocket 3.4 17:42:53 18° SSE 17:46:36 73° ENE 17:51:37 10° N
Cosmos 1626 Rocket 3.6 17:45:00 10° N 17:49:19 60° E 17:51:46 25° SSE
SL-16 R/B 2.6 17:44:12 10° NNW 17:49:43 50° ENE 17:53:02 23° SE
ERS-1 Rocket 3.8 17:45:11 10° S 17:50:01 48° W 17:54:52 10° NNW
SPOT 3 Rocket 4.2 17:48:18 22° ESE 17:51:02 39° ENE 17:55:47 10° N
MOS 1-B 4.3 17:47:01 19° SSE 17:51:19 74° ENE 17:57:07 10° N
Cosmos 1782 4.4 17:49:29 10° SW 17:52:38 30° WNW 17:55:47 10° NNW
Cosmos 2061 Rocket 4.1 17:50:07 10° S 17:56:20 80° W 18:02:39 10° N
COSMOS 2406 3.5 17:57:26 10° SSW 18:03:09 73° WNW 18:08:55 10° NNE
Cosmos 1980 Rocket 3.9 17:59:01 10° NW 18:03:41 27° WSW 18:08:19 10° SSW
CZ-4B R/B 4.0 18:03:34 28° ESE 18:05:29 40° ENE 18:09:59 10° N
CZ-4 R/B 3.9 18:05:36 10° SW 18:07:33 14° W 18:09:32 10° WNW
SL-08 R/B 4.3 18:05:58 10° N 18:10:34 48° WNW 18:15:05 10° SW
Terra 3.3 18:07:37 10° SSW 18:11:46 31° W 18:15:57 10° NNW
BREEZE-M DEB (TANK) 4.1 18:08:16 10° WNW 18:11:47 52° SSW 18:16:17 25° SSE
Cosmos 1933 3.0 18:10:09 32° S 18:11:49 84° E 18:15:38 10° N
USA 290 3.6 18:13:20 25° ENE 18:13:20 25° ENE 18:15:05 10° NE
USA 186 1.8 18:12:43 49° SW 18:13:05 54° W 18:15:47 10° NNW
Meteor 1-20 Rocket 4.2 18:08:26 10° N 18:14:04 84° ENE 18:17:15 28° SSE
Cosmos 1461 4.1 18:12:49 10° WSW 18:16:17 37° NW 18:19:44 10° NNE
Okean 1 4.4 18:17:58 25° ENE 18:17:58 25° ENE 18:20:23 10° NNE
Okean O Rocket 2.0 18:15:17 24° S 18:17:40 55° W 18:21:54 10° NNW
ISS -0.9 18:16:40 10° NW 18:18:49 16° N 18:20:57 10° NE
Cosmos 2333 Rocket 2.2 18:14:10 10° NNW 18:19:53 77° ENE 18:22:28 34° SE
Cosmos 1777 Rocket 4.4 18:16:13 10° N 18:21:17 47° ENE 18:23:04 34° ESE
Cosmos 1544 Rocket 4.2 18:22:14 15° SSW 18:25:43 52° W 18:29:57 10° N
Cosmos 2360 Rocket 2.5 18:24:38 10° NNW 18:30:12 54° ENE 18:32:15 36° ESE
Cosmos 2034 Rocket 4.5 18:29:13 34° SE 18:31:17 44° E 18:37:13 10° NNE
Cosmos 1437 Rocket 3.6 18:29:32 21° SW 18:31:28 42° WNW 18:34:54 10° N
Okean 1-7 Rocket 3.7 18:30:32 10° N 18:34:57 57° E 18:35:41 50° ESE
BREEZE-M DEB (TANK) 3.1 18:35:45 10° WSW 18:39:40 46° NNW 18:40:13 37° NNE
Okean-O 4.0 18:37:33 20° SSW 18:39:49 33° W 18:43:48 10° NNW
Cosmos 1486 Rocket 3.9 18:36:52 10° NNW 18:42:10 83° ENE 18:43:41 48° SSE
Cosmos 2219 Rocket 2.9 18:37:34 10° NNW 18:42:58 43° ENE 18:44:43 34° E
IRS-1C Rocket 4.0 18:46:10 44° S 18:47:54 83° WSW 18:53:12 10° NNW
DNEPR-1 R/B 4.4 18:42:27 10° NW 18:48:13 89° WSW 18:50:43 42° SSE
CZ-2C R/B 3.5 18:49:34 33° N 18:49:34 33° N 18:51:14 10° N
Nadezhda 4 Rocket 3.9 18:42:38 10° N 18:48:47 76° E 18:50:53 43° SSE
Cosmos 540 Rocket 3.4 18:48:29 53° SSE 18:49:25 64° ESE 18:54:31 10° NNE
Meteor 1-25 Rocket 4.4 18:45:36 10° NNW 18:51:10 64° W 18:53:25 36° SSW
Cosmos 1825 Rocket 3.3 18:55:16 10° N 18:59:39 88° E 18:59:54 79° SSE
Meteor 2-10 4.2 18:54:29 10° NNW 19:00:15 84° W 19:01:51 49° S
Cosmos 2322 Rocket 2.2 18:56:59 10° NNW 19:02:40 79° WSW 19:04:02 53° S
Cosmos 1805 4.0 19:01:01 10° NNW 19:03:37 38° WNW 19:03:37 38° WNW
NOSS 3-4 (A) 3.9 18:57:45 10° NW 19:04:43 84° SW 19:07:41 43° SSE
NOSS 3-4 (C) 3.9 18:58:23 10° NW 19:05:23 84° WSW 19:08:20 43° SSE
Cosmos 1953 Rocket 3.7 19:02:05 10° N 19:06:08 56° ENE 19:06:08 56° ENE
Cosmos 2195 Rocket 4.4 19:00:51 10° N 19:07:03 72° E 19:08:32 52° SE
Helios 1A 4.1 19:04:17 10° NNE 19:06:42 30° NE 19:06:42 30° NE
Cosmos 468 Rocket 4.2 19:10:16 53° E 19:10:16 53° E 19:15:18 10° NNE
Cosmos 2026 Rocket 4.1 19:04:47 10° N 19:11:08 65° E 19:12:37 51° SE
DELTA 2 R/B (1) 3.8 19:07:55 10° W 19:12:59 50° SSW 19:12:59 50° SSW
CZ-4B R/B 4.4 19:15:18 22° W 19:15:18 22° W 19:17:54 10° NW
Geosat 3.9 19:10:42 10° NNE 19:15:34 63° ESE 19:15:34 63° ESE
Cosmos 2058 Rocket 3.5 19:16:46 50° NE 19:16:46 50° NE 19:20:18 10° NNE
Ariane Rocket 3.8 19:18:58 35° SW 19:20:09 41° W 19:24:56 10° NNW
Cosmos 2237 Rocket 4.5 19:17:34 10° NNE 19:20:34 14° NE 19:23:33 10° ENE
Cosmos 44 3.9 19:18:28 10° NNW 19:23:44 51° NE 19:24:29 47° E
Cosmos 1076 Rocket 3.7 19:19:48 10° NNW 19:23:44 66° WNW 19:23:44 66° WNW
Meteor 1-26 Rocket 4.1 19:27:23 64° SSW 19:28:17 86° W 19:33:58 10° N
SL-16 R/B 3.8 19:29:00 10° NW 19:33:24 24° WSW 19:34:53 21° SW
Cosmos 1763 Rocket 4.3 19:31:03 29° WSW 19:33:24 47° WNW 19:38:30 10° N
COSMOS 2428 3.6 19:29:18 10° N 19:34:34 37° ENE 19:35:39 34° E
ARIANE 5 R/B 4.1 19:37:58 28° ENE 19:37:58 28° ENE 19:41:25 10° N
ALOS 2 4.3 19:40:00 24° ENE 19:40:00 24° ENE 19:43:12 10° NNE
Meteor 2-2 Rocket 4.2 19:39:25 67° SSW 19:40:13 82° W 19:46:01 10° N
Cosmos 1898 Rocket 4.1 19:39:05 10° N 19:44:02 44° ENE 19:44:13 43° ENE
Cosmos 990 Rocket 4.2 19:41:01 10° NNW 19:46:05 57° WSW 19:46:07 57° WSW
Helios 1B rocket 3.8 19:50:25 30° N 19:50:25 30° N 19:52:21 10° N
ISS -1.3 19:53:28 10° NW 19:55:19 23° NNW 19:55:19 23° NNW
Cosmos 1092 Rocket 4.1 19:53:43 10° NNW 19:59:49 64° W 20:00:42 57° SW
Cosmos-2242 4.3 20:01:32 34° WNW 20:01:32 34° WNW 20:04:57 10° N
NOSS 0 Rocket 4.5 19:55:49 10° NNW 20:01:46 48° ENE 20:02:54 43° E
Cosmos 2297 Rocket 3.1 20:04:30 36° ENE 20:04:30 36° ENE 20:08:37 10° NE
Cosmos 2333 Rocket 4.3 20:00:22 10° WNW 20:03:25 15° W 20:04:29 14° WSW
Cosmos 1536 4.4 20:00:19 10° NNW 20:02:28 31° NW 20:02:28 31° NW
Cosmos 841 Rocket 3.6 20:07:30 72° NE 20:07:30 72° NE 20:12:13 10° NNE
Meteor 1-14 Rocket 4.1 20:06:42 10° N 20:12:09 80° ENE 20:12:09 80° ENE
Cosmos 2360 Rocket 3.8 20:09:31 10° NW 20:13:43 22° W 20:13:59 22° WSW
Spot 4 4.2 20:18:18 62° NNE 20:18:18 62° NNE 20:22:24 10° N
Cosmos 2322 3.6 20:12:48 10° NNW 20:18:24 86° N 20:18:24 86° N
ACS3 Solar Sail 3.8 20:16:25 10° ENE 20:19:00 13° E 20:19:12 13° E
Cosmos 1812 Rocket 4.5 20:26:01 46° NNE 20:26:01 46° NNE 20:29:10 10° N
Cosmos 2221 3.6 20:27:01 41° NNW 20:27:01 41° NNW 20:29:53 10° N
Cosmos 372 Rocket 4.5 20:21:21 10° NNW 20:25:35 51° WNW 20:25:35 51° WNW
Cosmos 2219 Rocket 3.5 20:21:55 10° NW 20:26:24 28° W 20:26:24 28° W
Cosmos 2279 Rocket 4.3 20:32:07 51° WSW 20:33:00 56° W 20:39:10 10° N
Meteor 2-20 4.4 20:35:19 71° E 20:35:20 71° E 20:41:24 10° NNE
ARGOS Delta rocket 4.2 20:34:12 10° N 20:39:06 73° NW 20:39:06 73° NW
Meteor 1-19 Rocket 4.4 20:42:19 63° W 20:42:31 63° WNW 20:48:24 10° N
RESURS DK-1 4.3 20:43:49 10° NW 20:45:33 24° NW 20:45:33 24° NW
Cosmos 1937 Rocket 3.9 20:45:58 10° NNW 20:50:05 53° NW 20:50:05 53° NW
SL-16 R/B 4.3 20:49:38 10° N 20:53:51 21° NE 20:57:07 13° E
CZ-2C R/B 3.0 20:57:43 55° ENE 20:57:43 55° ENE 21:02:39 10° N
GP-B 4.1 20:55:57 10° N 20:59:02 44° NNW 20:59:02 44° NNW
USA 234 3.2 20:54:18 10° NE 21:00:53 84° NW 21:02:17 59° WSW
SeaSat 1 4.1 21:03:19 24° E 21:04:43 27° NE 21:08:50 10° N
Lacrosse 4 Rocket 3.0 21:07:20 31° NNE 21:07:20 31° NNE 21:09:35 10° NNE
Cosmos 2237 Rocket 2.2 20:59:52 10° NNW 21:05:22 78° NE 21:05:22 78° NE
Cosmos 2266 Rocket 4.0 20:59:57 10° NNW 21:05:54 62° W 21:05:54 62° W
Cosmos 1980 3.7 21:04:08 10° NNW 21:09:25 78° NNW 21:09:25 78° NNW
BREEZE-M DEB (TANK) 4.1 20:51:27 10° SW 21:12:25 85° SSE 21:17:45 10° ENE
Cosmos 2227 Rocket 2.4 21:14:03 59° E 21:14:03 59° E 21:19:05 10° NNE
ARIANE 5 R/B 4.5 21:15:19 23° WNW 21:15:19 23° WNW 21:17:40 10° NW
ALOS 2 4.4 21:17:23 25° WNW 21:17:23 25° WNW 21:19:46 10° NNW
Meteor 2-4 Rocket 3.7 21:18:12 76° NNW 21:18:12 76° NNW 21:23:21 10° N
COSMOS 2428 3.9 21:13:40 10° NW 21:17:37 31° W 21:17:37 31° W
Cosmos 2263 Rocket 2.8 21:22:17 43° E 21:22:17 43° E 21:26:58 10° NE
CZ-2C R/B 3.5 21:22:32 10° N 21:28:12 59° WNW 21:28:28 58° W
BlueWalker 3 4.2 21:31:45 22° NNE 21:31:45 22° NNE 21:33:19 10° NE
Alouette 2 Rocket 4.4 21:27:59 10° NNW 21:30:59 52° NNW 21:30:59 52° NNW
Cosmos 1655 Rocket 3.9 21:32:53 10° NNW 21:39:05 71° W 21:39:20 70° WSW
Cosmos 1814 Rocket 4.2 21:41:53 63° NW 21:41:53 63° NW 21:46:45 10° NNE
CENTAUR R/B 4.1 21:44:11 17° ESE 21:44:13 17° ESE 21:47:57 10° ENE
Meteor 2-11 Rocket 4.2 21:40:40 10° N 21:46:48 87° W 21:47:10 80° SSW
Cosmos 2297 Rocket 3.5 21:46:14 28° W 21:47:28 31° NW 21:52:27 10° N
Meteor 2-10 Rocket 3.7 21:45:44 10° NNW 21:51:08 72° W 21:51:08 72° W
Cosmos 2082 4.4 21:56:49 40° ESE 21:56:56 40° ESE 22:02:09 10° NE
Cosmos 1151 Rocket 3.8 21:58:14 50° NE 21:58:14 50° NE 22:01:35 10° NNE
Cosmos 1340 Rocket 4.2 21:55:27 10° N 21:58:09 35° NE 21:58:09 35° NE
Cosmos 1244 Rocket 4.3 21:53:27 10° N 21:59:37 83° W 22:00:08 75° SSW
ACS3 Solar Sail 1.5 21:56:04 10° NNE 22:02:06 90° SSE 22:02:41 74° SSW
ATLAS 5 CENTAUR R/B 3.1 22:02:47 63° SSW 22:03:56 84° SE 22:21:07 10° NE
IDEFIX/ARIANE 42P 3.5 22:06:32 10° NNE 22:11:21 36° E 22:12:01 35° ESE
Atlas Centaur 2 4.1 22:15:27 22° SE 22:15:27 22° SE 22:18:48 10° ESE
Cosmos 1953 4.3 22:09:55 10° NNE 22:12:40 20° ENE 22:12:46 20° ENE
Cosmos 489 Rocket 4.4 22:13:01 66° SW 22:13:57 80° WNW 22:20:21 10° NNE
Cosmos 1500 Rocket 3.9 22:10:13 10° N 22:14:01 64° NNE 22:14:01 64° NNE
Iridium 4 Rocket 4.4 22:18:00 40° W 22:18:09 40° W 22:23:36 10° NNW
S3M 4.1 22:20:54 51° SSE 22:22:19 66° E 22:28:24 10° NNE
ADEOS Rocket 4.0 22:22:34 10° NNE 22:29:53 48° E 22:32:58 31° SSE
Cosmos 2315 Rocket 4.2 22:32:50 44° SSE 22:34:47 65° E 22:41:03 10° NNE
CZ-2C R/B 4.4 22:39:09 17° WNW 22:39:09 17° WNW 22:41:41 10° NW
Cosmos 2219 3.1 22:37:21 65° SW 22:38:10 79° WNW 22:43:49 10° NNE
SL-16 R/B 2.1 22:32:49 10° NNW 22:38:29 67° WSW 22:38:56 64° SW
NPP 4.2 22:34:04 10° NNE 22:39:19 50° E 22:40:39 41° SE
NOSS 2-2 (C) 4.3 22:42:59 35° NNE 22:42:59 35° NNE 22:44:49 10° NNE
SeaSat 1 3.2 22:42:54 38° W 22:42:54 38° W 22:46:33 10° NW
Cosmos 1805 Rocket 4.4 22:39:28 10° NNW 22:42:38 37° WNW 22:42:38 37° WNW
Cosmos 1666 Rocket 4.3 22:40:29 10° N 22:44:48 49° E 22:45:46 41° ESE
Cosmos 2084 4.0 22:43:11 10° NW 22:46:11 46° NW 22:46:11 46° NW
Cosmos 2237 Rocket 4.3 22:46:01 10° WNW 22:47:09 12° WNW 22:47:09 12° WNW
Cosmos 1743 Rocket 3.6 22:44:33 10° NNW 22:48:24 62° WNW 22:48:24 62° WNW
Cosmos 1709 Rocket 3.9 22:47:23 10° N 22:53:37 88° W 22:55:54 42° S
Cosmos 2227 Rocket 3.9 22:55:49 18° W 22:57:58 22° NW 23:02:18 10° N
USA 81 4.5 22:54:13 10° N 22:59:25 57° E 23:01:54 30° SSE
ATLAS 2AS CENTAUR R/B 3.1 22:53:17 10° NNW 23:00:01 62° NE 23:06:46 10° SE
Cosmos 2263 Rocket 3.5 23:03:56 23° W 23:05:44 28° NW 23:10:29 10° N
ADEOS II 4.2 23:04:37 10° NE 23:08:26 20° E 23:12:15 10° SE
Cosmos 1570 Rocket 4.4 23:07:22 42° WSW 23:08:29 48° WNW 23:13:38 10° N
Cosmos 1328 Rocket 3.4 23:09:55 67° SW 23:10:25 76° W 23:14:50 10° N
Meteor 1-22 Rocket 4.2 23:06:07 10° NNW 23:11:47 64° W 23:13:18 45° SSW
Cosmos 2227 4.2 23:11:06 43° S 23:13:02 76° ESE 23:18:48 10° NNE
Cosmos 1125 Rocket 4.4 23:08:28 10° NW 23:12:45 32° W 23:12:45 32° W
Cosmos 2298 Rocket 4.1 23:08:52 10° NNW 23:14:12 76° ENE 23:17:54 20° SSE
NOSS 2-2 (D) 2.9 23:16:21 74° NNE 23:16:21 74° NNE 23:19:12 10° NE
Cosmos 1745 Rocket 4.4 23:10:46 10° NNW 23:16:31 43° W 23:18:00 37° SW
CRYOSAT 2 4.3 23:18:59 41° S 23:20:43 87° W 23:25:37 10° N
Cosmos 1943 3.0 23:16:13 10° NNW 23:21:51 79° WSW 23:25:32 22° SSE
Resurs 1-4 Rocket 3.0 23:18:44 10° NNE 23:23:44 42° E 23:27:04 19° SSE
COSMOS 2441 4.3 23:19:07 10° NNE 23:23:55 78° ESE 23:25:43 39° S
CENTAUR R/B 2.4 23:31:16 36° SW 23:33:36 71° NW 23:40:21 10° NNE
Meteor 1-23 Rocket 4.2 23:32:24 35° SSW 23:34:55 72° W 23:40:37 10° N
Cosmos 783 Rocket 4.4 23:33:55 38° SSW 23:35:57 78° WNW 23:41:13 10° NNE
Cosmos 1844 Rocket 2.7 23:33:39 36° SW 23:35:59 73° WNW 23:41:35 10° NNE
Cosmos 2150 Rocket 4.1 23:31:50 10° NNW 23:37:14 63° WSW 23:40:24 25° S
Cosmos 2154 Rocket 4.5 23:33:03 10° N 23:39:13 60° E 23:45:19 10° SSE
Cosmos 2074 Rocket 4.3 23:33:49 10° N 23:40:06 69° E 23:46:18 10° SSE
Okean 2 3.1 23:39:46 48° SSW 23:40:44 80° W 23:44:34 10° N
BREEZE-M DEB (TANK) 3.5 23:39:18 12° WNW 23:42:19 69° SSW 23:53:13 10° SE
Meteor 1-16 Rocket 4.0 23:37:09 10° NNW 23:42:28 79° W 23:46:08 21° S
ACS3 Solar Sail 3.6 23:40:23 10° NNW 23:43:34 15° WNW 23:46:10 11° W
ALOS 2.7 23:39:27 10° NNE 23:43:54 55° E 23:46:49 21° S
Tiangong -1.0 23:47:52 30° SSE 23:47:52 30° SSE 23:49:48 10° SE
Meteor 1-12 Rocket 4.3 23:41:08 10° N 23:46:51 83° E 23:52:28 10° SSE
Cosmos 1953 3.6 23:44:37 10° NW 23:46:58 22° WNW 23:46:58 22° WNW
Cosmos 2184 Rocket 4.1 23:41:25 10° N 23:47:36 76° E 23:53:46 10° SSE
Cosmos 1633 Rocket 3.6 23:44:48 10° NNW 23:48:49 38° W 23:49:40 34° WSW
Cosmos 1603 3.8 23:44:07 10° NNW 23:49:54 79° ENE 23:55:38 10° SSE
IDEFIX/ARIANE 42P 3.7 23:46:12 10° N 23:50:39 29° WNW 23:52:42 22° WSW
Cosmos 1470 Rocket 3.6 23:47:20 10° NNW 23:51:37 56° W 23:53:29 31° SSW
H-2A R/B 2.6 23:48:32 10° NNE 23:53:54 61° ESE 23:58:26 14° S
Geosat FO 3.7 23:51:57 10° NNE 23:54:38 79° WNW 23:54:56 66° SW
